User: anonymous
Location: Albany
(35.0000°S, 118.0000°E)
Time: 11:08:53
(UTC-04:00)
Language:

Radarsat Rocket - Orbit

View from above orbital plane
View from above orbital plane
View from above satellite
View from above satellite

Ground track
Ground track

The orbit data is extracted from the following two-line orbital elements,

1 23711U 95059B   14293.08689953  .00000206  00000-0  49491-3 0  7894
2 23711 100.4624 276.4580 0368127 357.8461 042.2231 13.12649889908389
Epoch (UTC): 20 October 2014 02:05:08
Eccentricity: 0.0368127
inclination: 100.4624°
perigee height: 933 km
apogee height: 1492 km
right ascension of ascending node: 276.4580°
argument of perigee: 357.8461°
revolutions per day: 13.12649889
mean anomaly at epoch: 42.2231°
orbit number at epoch: 90838

The dashed part of the orbit path shows where the satellite is in the earth's shadow,  

DLR